Weather History for Kremmling, CO

Change the Weather History Date:

Thursday, May 10, 2012

  Actual Average (KEGE) Record (KEGE)
Temperature  
Mean Temperature 52 °F -  
Max Temperature 75 °F 67 °F 81 °F (1962)
Min Temperature 28 °F 33 °F 20 °F (1950)
Degree Days  
Heating Degree Days 14    
Growing Degree Days 2 (Base 50)    
Moisture  
Dew Point 13 °F    
Average Humidity 27    
Maximum Humidity 64    
Minimum Humidity 6    
Precipitation  
Precipitation 0.00 in - - ()
Sea Level Pressure  
Sea Level Pressure 30.04 in    
Wind  
Wind Speed 3 mph (WNW)    
Max Wind Speed 21 mph    
Max Gust Speed 36 mph    
Visibility 10 miles    
Events      
Averages and records for this station are not official NWS values.
T = Trace of Precipitation, MM = Missing Value Source: NWS Daily Summary

Daily Weather History Graph

Daily Weather History Graph

Search for Another Location

Airport:

Trip Planner

Search our weather history database for the weather conditions in past years. The results will help you decide how hot, cold, wet, or windy it might be!

Date:

Astronomy

May. 10, 2012 Rise Set
Actual Time 5:54 AM MDT 8:09 PM MDT
Civil Twilight 5:24 AM MDT 8:40 PM MDT
Nautical Twilight 4:47 AM MDT 9:17 PM MDT
Astronomical Twilight 4:06 AM MDT 9:58 PM MDT
Moon 12:10 AM MDT (5/10) 10:22 AM MDT (5/10)
Length of Visible Light 15h 15m
Length of Day
14h 15m
Waning Gibbous, 72% of the Moon is Illuminated
May 10
Waning Gibbous
May 12
Last Quarter
May 20
New
May 28
First Quarter
Jun 4
Full

Hourly Weather History & Observations

Time (MDT) Temp. Dew Point Humidity Pressure Visibility Wind Dir Wind Speed Gust Speed Precip Events Conditions
12:13 AM 37.4 °F 17.6 °F 45% 30.11 in 10.0 mi Calm Calm - N/A   Clear
12:33 AM 37.4 °F 17.6 °F 45% 30.11 in 10.0 mi Calm Calm - N/A   Clear
12:53 AM 35.6 °F 15.8 °F 44% 30.11 in 10.0 mi Calm Calm - N/A   Clear
1:13 AM 33.8 °F 14.0 °F 44% 30.11 in 10.0 mi Calm Calm - N/A   Clear
1:33 AM 33.8 °F 14.0 °F 44% 30.11 in 10.0 mi Calm Calm - N/A   Clear
2:13 AM 32.0 °F 17.6 °F 55% 30.10 in 10.0 mi Calm Calm - N/A   Clear
2:33 AM 32.0 °F 15.8 °F 51% 30.11 in 10.0 mi Calm Calm - N/A   Clear
2:53 AM 32.0 °F 15.8 °F 51% 30.11 in 10.0 mi Calm Calm - N/A   Clear
3:13 AM 32.0 °F 17.6 °F 55% 30.11 in 10.0 mi Calm Calm - N/A   Clear
3:33 AM 32.0 °F 17.6 °F 55% 30.12 in 10.0 mi Calm Calm - N/A   Clear
3:52 AM 30.2 °F 17.6 °F 60% 30.12 in 10.0 mi Calm Calm - N/A   Clear
4:13 AM 30.2 °F 14.0 °F 51% 30.12 in 10.0 mi Calm Calm - N/A   Clear
4:33 AM 30.2 °F 15.8 °F 55% 30.12 in 10.0 mi Calm Calm - N/A   Clear
4:53 AM 30.2 °F 17.6 °F 60% 30.12 in 10.0 mi Calm Calm - N/A   Clear
5:13 AM 30.2 °F 17.6 °F 60% 30.12 in 10.0 mi Calm Calm - N/A   Clear
5:33 AM 28.4 °F 15.8 °F 59% 30.12 in 10.0 mi Calm Calm - N/A   Clear
5:53 AM 28.4 °F 15.8 °F 59% 30.13 in 10.0 mi Calm Calm - N/A   Clear
6:13 AM 28.4 °F 17.6 °F 64% 30.13 in 10.0 mi Calm Calm - N/A   Clear
6:33 AM 28.4 °F 15.8 °F 59% 30.14 in 10.0 mi Calm Calm - N/A   Clear
6:53 AM 30.2 °F 15.8 °F 55% 30.14 in 10.0 mi Calm Calm - N/A   Clear
7:13 AM 32.0 °F 17.6 °F 55% 30.14 in 10.0 mi Calm Calm - N/A   Clear
7:33 AM 33.8 °F 17.6 °F 52% 30.14 in 10.0 mi Calm Calm - N/A   Clear
7:53 AM 35.6 °F 19.4 °F 52% 30.14 in 10.0 mi Calm Calm - N/A   Clear
8:13 AM 37.4 °F 17.6 °F 45% 30.13 in 10.0 mi Calm Calm - N/A   Clear
8:33 AM 41.0 °F 17.6 °F 39% 30.12 in 10.0 mi Calm Calm - N/A   Clear
8:53 AM 44.6 °F 17.6 °F 34% 30.12 in 10.0 mi Calm Calm - N/A   Clear
9:13 AM 48.2 °F 17.6 °F 30% 30.11 in 10.0 mi Calm Calm - N/A   Clear
9:33 AM 50.0 °F 14.0 °F 24% 30.10 in 10.0 mi Calm Calm - N/A   Clear
9:53 AM 53.6 °F 17.6 °F 24% 30.08 in 10.0 mi Calm Calm - N/A   Clear
10:13 AM 53.6 °F 15.8 °F 22% 30.07 in 10.0 mi Calm Calm - N/A   Clear
10:33 AM 57.2 °F 14.0 °F 18% 30.06 in 10.0 mi Calm Calm - N/A   Clear
10:53 AM 59.0 °F 14.0 °F 17% 30.04 in 10.0 mi Calm Calm - N/A   Clear
11:12 AM 62.6 °F 12.2 °F 14% 30.04 in 10.0 mi Calm Calm - N/A   Clear
11:33 AM 64.4 °F 12.2 °F 13% 30.02 in 10.0 mi Calm Calm - N/A   Clear
11:53 AM 69.8 °F 8.6 °F 9% 30.01 in 10.0 mi SSW 6.9 mph - N/A   Clear
12:12 PM 71.6 °F 3.2 °F 7% 30.01 in 10.0 mi WSW 4.6 mph - N/A   Clear
12:33 PM 73.4 °F 5.0 °F 7% 30.00 in 10.0 mi WSW 11.5 mph 17.3 mph N/A   Clear
12:53 PM 73.4 °F 5.0 °F 7% 29.98 in 10.0 mi SSW 15.0 mph 21.9 mph N/A   Clear
1:13 PM 73.4 °F 5.0 °F 7% 29.97 in 10.0 mi WSW 17.3 mph 21.9 mph N/A   Clear
1:33 PM 73.4 °F 1.4 °F 6% 29.97 in 10.0 mi West 8.1 mph 23.0 mph N/A   Clear
1:53 PM 75.2 °F 1.4 °F 6% 29.96 in 10.0 mi South 8.1 mph - N/A   Clear
2:13 PM 73.4 °F 1.4 °F 6% 29.96 in 10.0 mi West 12.7 mph 17.3 mph N/A   Scattered Clouds
2:33 PM 73.4 °F 1.4 °F 6% 29.96 in 10.0 mi NNW 10.4 mph - N/A   Scattered Clouds
2:53 PM 69.8 °F 3.2 °F 7% 29.96 in 10.0 mi NNW 10.4 mph 16.1 mph N/A   Mostly Cloudy
3:13 PM 69.8 °F 8.6 °F 9% 29.96 in 10.0 mi WSW 20.7 mph 35.7 mph N/A   Mostly Cloudy
3:33 PM 69.8 °F 5.0 °F 8% 29.96 in 10.0 mi SSE 9.2 mph 23.0 mph N/A   Scattered Clouds
3:53 PM 69.8 °F 5.0 °F 8% 29.95 in 10.0 mi NW 6.9 mph - N/A   Scattered Clouds
4:12 PM 73.4 °F 5.0 °F 7% 29.94 in 10.0 mi NE 8.1 mph - N/A   Scattered Clouds
4:33 PM 71.6 °F 3.2 °F 7% 29.94 in 10.0 mi West 6.9 mph - N/A   Scattered Clouds
4:53 PM 69.8 °F 8.6 °F 9% 29.94 in 10.0 mi West 11.5 mph 20.7 mph N/A   Clear
5:13 PM 69.8 °F 8.6 °F 9% 29.95 in 10.0 mi NNW 9.2 mph - N/A   Clear
5:33 PM 66.2 °F 10.4 °F 11% 29.95 in 10.0 mi SW 13.8 mph 25.3 mph N/A   Mostly Cloudy
5:52 PM 68.0 °F 12.2 °F 12% 29.96 in 10.0 mi West 10.4 mph - N/A   Scattered Clouds
6:13 PM 69.8 °F 10.4 °F 10% 29.95 in 10.0 mi NW 9.2 mph - N/A   Clear
6:33 PM 68.0 °F 6.8 °F 9% 29.95 in 10.0 mi WSW 8.1 mph 16.1 mph N/A   Scattered Clouds
6:53 PM 64.4 °F 14.0 °F 14% 29.96 in 10.0 mi West 10.4 mph 19.6 mph N/A   Scattered Clouds
7:13 PM 62.6 °F 17.6 °F 18% 29.96 in 10.0 mi West 12.7 mph 20.7 mph N/A   Scattered Clouds
7:33 PM 62.6 °F 17.6 °F 18% 29.95 in 10.0 mi WSW 18.4 mph 29.9 mph N/A   Scattered Clouds
7:53 PM 64.4 °F 8.6 °F 11% 29.97 in 10.0 mi NW 9.2 mph 20.7 mph N/A   Scattered Clouds
8:13 PM 64.4 °F 6.8 °F 10% 29.97 in 10.0 mi SSW 9.2 mph 29.9 mph N/A   Scattered Clouds
8:33 PM 64.4 °F 6.8 °F 10% 29.97 in 10.0 mi NE 3.5 mph 18.4 mph N/A   Mostly Cloudy
8:53 PM 62.6 °F 6.8 °F 11% 29.98 in 10.0 mi WSW 5.8 mph - N/A   Overcast
9:13 PM 60.8 °F 10.4 °F 14% 29.99 in 10.0 mi Calm Calm - N/A   Mostly Cloudy
9:32 PM 60.8 °F 12.2 °F 15% 30.00 in 10.0 mi North 4.6 mph - N/A   Mostly Cloudy
9:53 PM 60.8 °F 14.0 °F 16% 30.00 in 10.0 mi NW 8.1 mph - N/A   Scattered Clouds
10:13 PM 59.0 °F 15.8 °F 19% 30.01 in 10.0 mi NNW 6.9 mph - N/A   Clear
10:33 PM 59.0 °F 17.6 °F 20% 30.02 in 10.0 mi NW 8.1 mph - N/A   Clear
10:52 PM 59.0 °F 17.6 °F 20% 30.03 in 10.0 mi NNW 6.9 mph - N/A   Clear
11:13 PM 55.4 °F 19.4 °F 25% 30.04 in 10.0 mi WNW 6.9 mph - N/A   Scattered Clouds
11:33 PM 55.4 °F 21.2 °F 26% 30.05 in 10.0 mi North 4.6 mph - N/A   Mostly Cloudy
11:53 PM 53.6 °F 21.2 °F 28% 30.05 in 10.0 mi NW 4.6 mph - N/A   Scattered Clouds